Погода в Эльтоне

Погода в Эльтоне : погода сейчас, прогноз погоды и архив. Всё, что Вы хотите узнать о погоде в Эльтоне!

Хотите узнать прогноз погоды в Эльтоне? Тогда Вам сюда: Погода в Эльтоне

Поиск расширенной информации на нашем сайте:

Другие новости

Новости СМИ2

Главная страница сайта

Новости сайта

03.07.2017

Напоминаем, что на нашем специализированном сайте Метеоцентр.Азия вы можете получить высокодетализированные автоматические прогнозы погоды по пунктам России, СНГ и мира в авиационном формате (включающие направление и скорость ветра, видимость, явления погоды, количество и форму облачности, нижнюю и верхнюю границу облачности).


Погода в Эльтоне - сегодня

Время (UTC), дата Ветер
(°,м/с) 
Видим.   Явления Облачность Т
(°С)
Тd
(°С)
f(%) Тe
(°С)
Pmin
(гПа)
dP
(гПа)
Po
(мм)
O2
(г/м3)
Тmin Tmax R s Состояние
почвы
15 16.04.18 тихо ()   20000 м    4/0 средняя, верхняя 
[Ac trans|Ci]
+16.7 -0.6 31 +17  1019.2  -1.3  764  290    +17.7       
18 16.04.18 090 (В) 20000 м    3/0 верхняя 
[Ci fib]
+11 -1.4 42 +11  1019.8  0.6  764  296           
21 16.04.18 140 (ЮВ) 20000 м    ясно 
+6.2 +0.8 68 +7  1019.5  -0.4  764  301           
00 17.04.18 220 (ЮЗ) 4000 м  дымка  ясно 
+3.7 +2.1 89 +5  1019.4  0.1  764  303           
03 17.04.18 тихо ()   4000 м  дымка  6/0 верхняя 
[Ci]
+3.5 +2.1 91 +4  1019.6  0.3  764  304  +2.8         
06 17.04.18 тихо ()   20000 м    9/0 верхняя 
[Ci]
+12.9 +5.5 61 +13  1020.2  0.6  765  293           
09 17.04.18 270 (З) 20000 м    9/0 верхняя 
[Ci]
+16.7 +5.3 47 +18  1019.9  -0.3  764  289           
12 17.04.18 280 (З) 20000 м    9/0 средняя, верхняя 
[Ac trans|Ci]
+19.1 +1.1 30 +20  1019.4  -0.5  764  288           
15 17.04.18 тихо ()   20000 м    9/0 средняя, верхняя 
[Ac trans|Ci]
+18.2 -0.4 28 +18  1019.2  -0.2  764  289    +19.7       
18 17.04.18 130 (ЮВ) 20000 м    9/0 средняя, верхняя 
[Ac trans|Ci]
+12.8 +1.5 46 +13  1019.8  0.6  764  294           
21 17.04.18 170 (Ю) 20000 м    9/0 средняя, верхняя 
[Ac trans|Ci]
+12.4 +2.8 52 +14  1020.2  0.4  765  294           
00 18.04.18 150 (ЮВ) 20000 м    8/0 средняя, верхняя 
[Ac trans|Ci]
+11.6 +2.9 55 +13  1019.8  -0.4  764  295           
03 18.04.18 250 (З) 20000 м    5/0 средняя, верхняя 
[Ac trans|Ci]
+10.4 +4.2 65 +10  1019.8  764  296  +10        сухая 
06 18.04.18 250 (З) 20000 м    9/0 средняя, верхняя 
[Ac trans|Ci]
+16.1 +4.3 45 +16  1019.8  764  290           
09 18.04.18 230 (ЮЗ) 7-10{10}  20000 м    10/0 средняя 
[Ac und]
+19.6 +3.8 35 +20  1018.8  -1  764  287           
12 18.04.18 210 (ЮЗ) 8-12{13}  20000 м    9/3 600 м кучево-дожд., средняя, верхняя 
[Cb cap|Ac trans|Ci]
+21 +2.3 29 +21  1017.2  -1.6  762  285           
15 18.04.18 200 (Ю) 5{12}  20000 м    10/0 средняя 
[Ac und]
+18.6 +1.8 32 +19  1015.6  -1.7  761  287    +21.4       
18 18.04.18 180 (Ю) 7-10{10}  20000 м    10/4 600 м кучево-дожд., средняя 
[Cb cap|Ac trans]
+15.6 +3.5 44 +15  1013.9  -1.6  760  289           
21 18.04.18 180 (Ю) 3{13}  20000 м  в посл. час ливневой дождь  10/8 300 м кучево-дожд., средняя 
[Cb cap|Ac trans]
+13.3 +6.1 62 +13  1012.5  -1.4  759  291           
00 19.04.18 190 (Ю) 5{10}  20000 м  {ливн. осадки}  10/8 600 м кучево-дожд., средняя 
[Cb cap|Ac trans]
+11.4 +6.7 73 +10  1010.7  -1.8  757  292           
03 19.04.18 190 (Ю) 20000 м    10/8 600 м кучево-дожд., средняя 
[Cb cap|Ac trans]
+10.8 +5.4 69 +10  1008.4  -2.3  756  292  +10.8    0.0    сухая 
06 19.04.18 200 (Ю) 20000 м  в посл. час ливневой дождь  10/5 600 м кучево-дожд., средняя 
[Cb cap|Ac trans]
+11.2 +8.6 84 +10  1007.1  -1.3  755  291  +9.6         
09 19.04.18 230 (ЮЗ) 20000 м    5/3 1000 м верхняя 
[Cu med, cong|Ci]
+15.5 +8.8 64 +17  1004.9  -2.1  753  286           
12 19.04.18 220 (ЮЗ) 20000 м    10/8 600 м кучево-дожд., средняя 
[Cb cap|Ac trans]
+17.2 +5.9 47 +17  1003  -2  752  284           
15 19.04.18 210 (ЮЗ) 6{14}  20000 м    9/5 600 м кучево-дожд., средняя, верхняя 
[Cb cap|Ac trans|Ci]
+14.2 +7.2 63 +13  1002.2  -0.8  751  286    +18.1     
Время (UTC), дата Ветер
(°,м/с) 
Видим.   Явления Облачность Т
(°С)
Тd
(°С)
f(%) Тe
(°С)
Pmin
(гПа)
dP
(гПа)
Po
(мм)
O2
(г/м3)
Тmin Tmax R s Состояние
почвы

Для получения пояснительной информации подведите курсор к названию столбца.

ПОГОДА в Эльтоне - архив

Всё, что Вы хотите узнать о погоде в Эльтоне - удобно и подробно!

Выберите нужную дату (начиная с 1 января 2015* года) и нажмите кнопку "Найти".
Будут отображены архивные сводки погоды по пункту Эльтон, начиная с указанной даты.


Отображать данные в формате CSV (для использования в таблицах Excel)


Внимание! Наш архив погоды предназначен исключительно для личного некоммерческого использования в познавательных целях. Если Вам необходимы официальные справки о состоянии погоды (для производственных, юридических, коммерческих и т.п. целей), обращайтесь в органы Росгидромета.

*Примечание: данная дата относится к архиву по метеостанциям СССР (Россия, СНГ, Балтия).
Архив по метеостанциям Зарубежной Европы и Азии (кроме Китая) хранится 10 дней, по другим регионам земного шара (Китай, Африка, Америка, Австралия, Океания) - 1 день.

Эльтон - район местоположения метеостанции


Название, широта, долгота, высота метеостанции:
Эльтон 49.1°ш. 46.9°д. 6 м над ур. моря [Российская Федерация]

Дополнительная информация

В oтличие oт бoльшинства пoгoдных сайтoв мы публикуем пoдрoбную метеoинфoрмацию в детальнoм прoфессиoнальнoм фoрмате.

Характеристики температуры и влажнoсти вoздуха измеряются на высoте 2 м в тени вдали oт зданий и деревьев.
Скoрoсть ветра измеряется на высoте 10 м (на урoвне рoста челoвека скoрoсть ветра ниже в 1.5-2 раза). Если метеoстанция нахoдится в гoрoде или в лесу, тo скoрoсть ветра занижена на 2-4 м/с пo сравнению с oткрытым местoм. Скoрoсть ветра над акватoриями крупных рек и oзёр, а также на вершинах хoлмoв на 2-5 м/с выше, чем в oбычных услoвиях.
Атмoсфернoе давление в разных тoчках местнoсти мoжет значительнo oтличаться oт давления на метеoстанции, в зависимoсти oт услoвий рельефа (при пoдъёме на 10 м давление пoнижается примернo на 1 мм рт.ст.).